STARLINK-1398 (45699 NORAD) Tracking and Keplerian Element Data

This shows tracking and keplerian element data for the satellite.

Feedback or suggestion? Click here.




ElementValue
Catalog45699
NameSTARLINK-1398
Epoch Orbit557
Epoch Day185.50001157
Epoch Year2020
RAAN24.949
Inclination53.0017
Eccentricity9.97E-05
Argument of Perigee81.7118
Mean Anonmoly0.4467
Mean Motion15.6269983
Decay Rate0.00047705
L11 45699U 20035AU 20185.50001157 .00047705 00000-0 52485-3 0 9998
L22 45699 53.0017 24.9490 0000997 81.7118 0.4467 15.62699830 5577

Live tracking and technical data element details for STARLINK-1398 (NORAD 45699). STARLINK-1398 can be tracked NOW for your location showing map with azimuth and elevation plus other details from your city location.

Track the satellite on the map from your city or location and see movement details for azimuth, elevation, latitude, longitude, range, height, and movement on the map or in text.







IsCatalogInMostPopularTable: catalog: 45699, numindb: 5
Update: records affected: 1



GetName: 45699 STARLINK-1398

Hit Count: updated at: Sat, 04 Jul 2020 01:20:26 GMT